[[{"header":{"parameterUnit":"m.s-1","parameterCategory":1,"la1":30.2991,"la2":30.254,"lo1":-89.0895,"lo2":-89.0444,"dy":0.0017,"dx":0.0017,"nx":28,"ny":28,"refTime":"2023-10-03T03:00:00:Z","depth":0,"parameterNumber":2,"parameterNumberName":"U-component_of_WINDS"},"data":[0,0,0,0,0,0,0,0,0,0,0,0,0,0,0,0,0,0,0,0,0,0,0,0,0,0,0,0,0,0,0,0,0,0,0,0,0,0,0,0,0,0,0,0,0,0,0,0,0,0,0,0,0,0,0,0,0,0,-3.2723,-3.2723,0,-3.2778,-3.2778,-3.2779,-3.2703,-3.27,-3.2697,-3.2695,-3.275,-3.2754,-3.2757,0,0,0,0,0,0,0,0,0,0,0,0,0,-3.255,-3.2554,-3.2723,-3.2723,-3.2724,-3.2778,-3.2778,-3.2779,-3.2703,-3.27,-3.2697,-3.2694,-3.2748,-3.2753,-3.2758,0,0,0,0,0,0,0,0,0,0,0,0,0,-3.2617,-3.2555,-3.2723,-3.2693,-3.2691,-3.2777,-3.2778,-3.2779,-3.2704,-3.27,-3.2696,-3.2692,-3.2747,-3.2753,-3.2758,-3.2877,0,0,-3.2777,-3.2779,0,0,0,0,0,0,0,0,-3.2614,-3.2624,-3.2696,-3.2695,-3.2693,-3.2729,-3.2738,-3.2812,-3.2705,-3.2699,-3.2695,-3.269,-3.2746,-3.2752,-3.2771,-3.2879,-3.2882,-3.2777,-3.2781,-3.2783,-3.2785,0,0,0,0,0,0,0,-3.2609,-3.2621,-3.2744,-3.2698,-3.2695,-3.2676,-3.2681,-3.2751,-3.2745,-3.2699,-3.2694,-3.2701,-3.2744,-3.2765,-3.2772,-3.2882,-3.2777,-3.2782,-3.2786,-3.2788,-3.309,-3.3094,0,0,0,0,0,0,-3.2608,-3.2618,-3.2743,-3.2746,-3.2642,-3.2682,-3.2688,-3.2722,-3.2744,-3.2743,-3.2705,-3.2698,-3.2757,-3.2765,-3.2773,-3.2913,-3.2783,-3.2789,-3.2792,-3.3086,-3.3091,-3.3096,0,0,0,0,0,0,-3.2605,-3.262,-3.274,-3.268,-3.2694,-3.269,-3.2728,-3.2725,-3.2746,-3.2748,-3.2746,-3.2728,-3.2754,-3.2765,-3.2852,-3.2914,-3.2792,-3.2797,-3.308,-3.3087,-3.3093,-3.3193,0,0,0,0,0,0,-3.26,-3.2619,-3.2665,-3.2682,-3.2698,-3.2818,-3.2732,-3.2729,-3.2757,-3.2748,-3.2769,-3.2769,-3.2752,-3.2843,-3.2858,-3.292,-3.2802,-3.3075,-3.3083,-3.3091,-3.3184,-3.3202,-3.3218,0,0,0,0,0,-3.2594,-3.269,-3.2667,-3.2683,-3.2754,-3.2822,-3.2831,-3.281,-3.2762,-3.2807,-3.2808,-3.2768,-3.2905,-3.2853,-3.2868,-3.2933,-3.3071,-3.3081,-3.3091,-3.3177,-3.3199,-3.3217,0,0,0,0,0,0,-3.268,-3.2692,-3.2667,-3.2771,-3.2796,-3.2809,-3.2865,-3.2835,-3.2873,-3.2864,-3.2836,-3.2841,-3.2934,-3.2942,-3.2884,-3.3048,-3.298,-3.2993,-3.304,-3.3061,-3.3077,-3.3073,-3.2807,0,0,0,0,0,-3.2711,-3.2765,-3.2773,-3.2864,-3.2878,-3.287,-3.2899,-3.2881,-3.2905,-3.2916,-3.2923,-3.2948,-3.2997,-3.3029,-3.3074,-3.3185,-3.3188,-3.3237,-3.3254,-3.3268,-3.328,-3.3339,-3.3361,-3.3128,-3.3128,-3.3128,0,0,-3.2775,-3.2789,-3.2825,-3.2882,-3.2899,-3.2956,-3.2879,-3.2943,-3.2984,-3.2925,-3.3007,-3.3014,-3.304,-3.3139,-3.3183,-3.3149,-3.3345,-3.3281,-3.3292,-3.3296,-3.3351,-3.3373,-3.3393,-3.3135,-3.3134,-3.3133,0,0,-3.2922,-3.2938,-3.3015,-3.3035,-3.3062,-3.3056,-3.3075,-3.3093,-3.3095,-3.3177,-3.3134,-3.3183,-3.3267,-3.3287,-3.3309,-3.3463,-3.3427,-3.3479,-3.3566,-3.3624,-3.3642,-3.3658,-3.3713,-3.3733,-3.3491,-3.3491,-3.3491,0,-3.2998,-3.3082,-3.3059,-3.3126,-3.3152,-3.3101,-3.3179,-3.3199,-3.324,-3.3259,-3.322,-3.3324,-3.3339,-3.3442,-3.348,-3.3499,-3.3519,-3.3476,-3.3642,-3.3657,-3.3672,-3.3724,-3.3744,-3.3497,-3.3496,-3.3496,-3.3495,0,-3.3175,-3.3234,-3.3293,-3.3334,-3.3367,-3.3439,-3.3426,-3.3462,-3.3442,-3.344,-3.3524,-3.3539,-3.3586,-3.3609,-3.359,-3.371,-3.3688,-3.3646,-3.3576,-3.3701,-3.3749,-3.3768,-3.3505,-3.3503,-3.3502,-3.35,0,0,-3.3376,-3.3403,-3.3425,-3.3443,-3.347,-3.3515,-3.3584,-3.3631,-3.3662,-3.3692,-3.3749,-3.3822,-3.3783,-3.3808,-3.379,-3.3841,-3.3962,-3.3792,-3.3792,-3.3823,-3.4095,-3.4126,-3.4149,-3.3939,-3.3942,-3.3945,-3.4092,0,-3.3521,-3.3642,-3.3623,-3.374,-3.3794,-3.3747,-3.3807,-3.383,-3.383,-3.3876,-3.3875,-3.3927,-3.3873,-3.3887,-3.3935,-3.3937,-3.4016,-3.3926,-3.3991,-3.3993,-3.3985,-3.4174,-3.4207,-3.4345,-3.4111,-3.4114,-3.4116,0,-3.3707,-3.3744,-3.3866,-3.3884,-3.3906,-3.3961,-3.4002,-3.4046,-3.4071,-3.4067,-3.4095,-3.4068,-3.4137,-3.4067,-3.4161,-3.4101,-3.4126,-3.4131,-3.4136,-3.414,-3.4062,-3.4183,-3.4389,-3.4409,-3.4146,-3.4144,-3.4141,0,-3.3841,-3.3921,-3.4005,-3.4021,-3.4045,-3.4084,-3.4096,-3.4117,-3.4146,-3.4181,-3.42,-3.4243,-3.4267,-3.4301,-3.4286,-3.4236,-3.4383,-3.4312,-3.4382,-3.4382,-3.4414,-3.4412,-3.4626,-3.4432,-3.4432,-3.4431,-3.4431,0,-3.4005,-3.4082,-3.4065,-3.4116,-3.42,-3.4178,-3.4261,-3.4267,-3.4286,-3.4337,-3.4299,-3.4348,-3.4326,-3.4373,-3.4362,-3.4442,-3.4453,-3.4451,-3.4447,-3.4454,-3.4455,-3.447,-3.446,-3.4437,-3.4435,-3.4434,-3.4433,0,-3.4168,-3.4161,-3.4248,-3.4263,-3.4269,-3.433,-3.4343,-3.439,-3.4388,-3.4453,-3.4467,-3.4463,-3.4516,-3.4505,-3.4564,-3.4556,-3.4656,-3.464,-3.4648,-3.4644,-3.4714,-3.4707,-3.4945,-3.4974,-3.4762,-3.4764,-3.4766,0,-3.4273,-3.4331,-3.4353,-3.4384,-3.4399,-3.445,-3.448,-3.446,-3.4492,-3.4525,-3.4569,-3.4619,-3.4658,-3.4746,-3.4748,-3.4792,-3.4777,-3.4857,-3.4783,-3.4789,-3.4778,-3.4774,-3.4779,-3.4872,-3.4874,-3.4876,-3.4878,0,-3.4461,-3.4454,-3.4498,-3.4541,-3.4578,-3.461,-3.464,-3.4668,-3.465,-3.4689,-3.4743,-3.4773,-3.4833,-3.4884,-3.4925,-3.4936,-3.4905,-3.4901,-3.4919,-3.4927,-3.4928,-3.4928,-3.4687,-3.4895,-3.4894,-3.4892,-3.4891,-3.4891,-3.4597,-3.4646,-3.4669,-3.4719,-3.4739,-3.4768,-3.4813,-3.4816,-3.4861,-3.4909,-3.4895,-3.4957,-3.498,-3.5032,-3.5048,-3.5096,-3.5066,-3.5093,-3.51,-3.5106,-3.5115,-3.4922,-3.5104,-3.5103,-3.5103,-3.5102,-3.5102,0,-3.4782,-3.4794,-3.4841,-3.4883,-3.4923,-3.489,-3.492,-3.4956,-3.5011,-3.5035,-3.5074,-3.5137,-3.5185,-3.5192,-3.5237,-3.5275,-3.5261,-3.5287,-3.5284,-3.5287,-3.5139,-3.5118,-3.5297,-3.5297,-3.5297,-3.5297,-3.5297,-3.5297,-3.4883,-3.4963,-3.4959,-3.5049,-3.5061,-3.5122,-3.5142,-3.5168,-3.5187,-3.5259,-3.5299,-3.5303,-3.532,-3.5366,-3.5409,-3.541,-3.5428,-3.546,-3.5455,-3.5317,-3.5297,-3.5279,-3.5259,-3.5464,-3.5465,-3.5598,-3.56,-3.56]},{"header":{"parameterUnit":"m.s-1","parameterCategory":1,"la1":30.2991,"la2":30.254,"lo1":-89.0895,"lo2":-89.0444,"dy":0.0017,"dx":0.0017,"nx":28,"ny":28,"refTime":"2023-10-03T03:00:00:Z","depth":0,"parameterNumber":3,"parameterNumberName":"V-component_of_WINDS"},"data":[0,0,0,0,0,0,0,0,0,0,0,0,0,0,0,0,0,0,0,0,0,0,0,0,0,0,0,0,0,0,0,0,0,0,0,0,0,0,0,0,0,0,0,0,0,0,0,0,0,0,0,0,0,0,0,0,0,0,0.7087,0.7086,0,0.7001,0.7,0.6999,0.6922,0.6921,0.692,0.6919,0.6827,0.6826,0.6824,0,0,0,0,0,0,0,0,0,0,0,0,0,0.7179,0.7178,0.7087,0.7086,0.7085,0.7001,0.7,0.6999,0.6922,0.6921,0.692,0.6919,0.6828,0.6826,0.6824,0,0,0,0,0,0,0,0,0,0,0,0,0,0.7121,0.7178,0.7087,0.7036,0.7031,0.7002,0.7,0.6999,0.6922,0.6921,0.6919,0.6918,0.6828,0.6826,0.6824,0.6836,0,0,0.6816,0.6815,0,0,0,0,0,0,0,0,0.7124,0.7118,0.7045,0.704,0.7034,0.6971,0.6999,0.6944,0.6922,0.6963,0.6919,0.6917,0.6876,0.6869,0.6856,0.6832,0.6828,0.6816,0.6815,0.6814,0.6813,0,0,0,0,0,0,0,0.7129,0.7121,0.7053,0.7044,0.7037,0.7016,0.7007,0.6988,0.6928,0.696,0.6954,0.6945,0.6872,0.6859,0.6854,0.6827,0.6816,0.6814,0.6813,0.6812,0.6809,0.681,0,0,0,0,0,0,0.7141,0.7125,0.7055,0.705,0.7077,0.7016,0.7005,0.6992,0.6928,0.6917,0.6946,0.6942,0.6864,0.6856,0.685,0.6861,0.6814,0.6811,0.681,0.6807,0.6809,0.681,0,0,0,0,0,0,0.7143,0.7136,0.7059,0.7086,0.7075,0.7016,0.7002,0.6991,0.6978,0.6918,0.6907,0.6944,0.6862,0.6853,0.6841,0.6856,0.681,0.6808,0.6806,0.6808,0.681,0.6882,0,0,0,0,0,0,0.7146,0.7137,0.7142,0.7087,0.7074,0.7052,0.7003,0.6991,0.6974,0.6967,0.6913,0.6902,0.686,0.6845,0.6838,0.6852,0.6806,0.6804,0.6807,0.6809,0.6878,0.6886,0.6894,0,0,0,0,0,0.715,0.7165,0.7143,0.7135,0.7079,0.7053,0.7046,0.6999,0.6976,0.698,0.6942,0.6904,0.6856,0.6844,0.6836,0.685,0.6803,0.6806,0.6809,0.6875,0.6885,0.6893,0,0,0,0,0,0,0.7222,0.7157,0.7131,0.7129,0.7098,0.7041,0.7044,0.7011,0.6984,0.6979,0.692,0.6908,0.6902,0.6874,0.6862,0.6859,0.6824,0.6826,0.6877,0.6886,0.6894,0.69,0.6804,0,0,0,0,0,0.7238,0.7224,0.7167,0.7171,0.7156,0.7103,0.709,0.7057,0.7021,0.7007,0.6968,0.6934,0.6911,0.6897,0.6873,0.6874,0.686,0.6879,0.6887,0.6894,0.6896,0.6894,0.6901,0.682,0.682,0.682,0,0,0.727,0.7232,0.7227,0.7184,0.7156,0.7142,0.7092,0.7079,0.7068,0.7005,0.6991,0.6961,0.6919,0.6913,0.6909,0.689,0.6915,0.6898,0.6903,0.6901,0.6898,0.6906,0.6912,0.6822,0.6822,0.6822,0,0,0.7321,0.7292,0.7292,0.7265,0.7223,0.7188,0.7188,0.7136,0.7114,0.71,0.7052,0.7037,0.6999,0.6971,0.6952,0.6994,0.6957,0.6987,0.7027,0.7026,0.7033,0.7038,0.7052,0.7058,0.6989,0.6989,0.699,0,0.7366,0.7344,0.7295,0.7285,0.7268,0.7212,0.721,0.7186,0.7138,0.7127,0.7107,0.7058,0.7026,0.7013,0.7024,0.701,0.7007,0.6993,0.7036,0.7041,0.7045,0.7058,0.7064,0.6993,0.6993,0.6992,0.6992,0,0.74,0.7386,0.739,0.7348,0.733,0.7325,0.7274,0.7263,0.7231,0.7198,0.7183,0.7143,0.711,0.7104,0.7072,0.7087,0.7076,0.7047,0.7011,0.7058,0.7069,0.7073,0.6999,0.6997,0.6996,0.6995,0,0,0.7493,0.7425,0.7427,0.7407,0.7358,0.7345,0.7336,0.7305,0.7296,0.7265,0.7256,0.7226,0.7199,0.7177,0.7142,0.7141,0.7177,0.7112,0.711,0.7125,0.7189,0.7211,0.7218,0.7153,0.7154,0.7154,0.7193,0,0.7536,0.7519,0.7476,0.7472,0.7458,0.7405,0.7398,0.7366,0.7335,0.7317,0.7282,0.7261,0.7227,0.7214,0.7211,0.7173,0.7189,0.717,0.7142,0.7142,0.7154,0.7224,0.7247,0.7285,0.7197,0.7197,0.7198,0,0.7583,0.7557,0.7553,0.7504,0.7497,0.7491,0.7459,0.7443,0.7406,0.7383,0.736,0.7322,0.7309,0.7277,0.7258,0.7246,0.7232,0.7212,0.7212,0.7207,0.7172,0.722,0.7296,0.7302,0.7204,0.7204,0.7203,0,0.7651,0.7615,0.7608,0.7592,0.7535,0.7533,0.7509,0.747,0.7455,0.7426,0.7415,0.7386,0.7369,0.7346,0.7301,0.7281,0.7287,0.7251,0.7266,0.7268,0.7269,0.727,0.7344,0.7262,0.7262,0.7262,0.7262,0,0.7703,0.7702,0.7638,0.7633,0.763,0.758,0.7578,0.7549,0.7515,0.7503,0.7455,0.7445,0.7385,0.7367,0.7331,0.7321,0.7314,0.7294,0.7285,0.7298,0.7301,0.7288,0.7284,0.7263,0.7263,0.7262,0.7262,0,0.7778,0.7735,0.7723,0.7671,0.7658,0.7659,0.7613,0.7606,0.7573,0.7558,0.7552,0.7499,0.7475,0.7428,0.7391,0.7366,0.7364,0.7347,0.7378,0.7371,0.739,0.7389,0.7458,0.7464,0.7379,0.738,0.7381,0,0.7813,0.7812,0.776,0.775,0.7728,0.7711,0.7695,0.7646,0.7631,0.7589,0.7587,0.756,0.7536,0.7501,0.7458,0.743,0.7411,0.7438,0.7407,0.7421,0.7411,0.7412,0.7411,0.7444,0.7446,0.7446,0.7447,0,0.7881,0.786,0.784,0.7813,0.7795,0.7771,0.7744,0.7737,0.7681,0.7667,0.7643,0.7625,0.7588,0.7562,0.7527,0.7501,0.7464,0.7458,0.746,0.7473,0.7491,0.7481,0.7396,0.7456,0.7455,0.7454,0.7454,0.7454,0.7937,0.7933,0.7897,0.7875,0.785,0.7826,0.7817,0.7784,0.7764,0.7731,0.7702,0.7681,0.7644,0.7594,0.757,0.7552,0.7534,0.7537,0.7538,0.7539,0.7545,0.7495,0.7545,0.7545,0.7545,0.7545,0.7544,0,0.8002,0.7976,0.7957,0.7922,0.7905,0.7874,0.7843,0.783,0.7813,0.7782,0.776,0.7733,0.7707,0.7663,0.7634,0.7628,0.761,0.7622,0.7621,0.7616,0.7563,0.7564,0.7636,0.7636,0.7636,0.7636,0.7636,0.7636,0.8033,0.8025,0.8,0.7979,0.7952,0.7933,0.7918,0.7895,0.787,0.7842,0.7822,0.7794,0.7757,0.7725,0.7699,0.7687,0.7678,0.7695,0.7677,0.7628,0.7619,0.7611,0.7612,0.7693,0.7693,0.7731,0.7732,0.7732]}]]